sat.trackr.live / text

‹ back to catalog

STARLINK-30324

NORAD 57640 · 2023-122J

PAYLOAD ACTIVE UNKNOWN

§ Identity

Operator
Country
US
Launch date
2023-08-17
Launch site
AFETR
Launch vehicle
Mass (kg)
RCS (m²)

Purposes: comms

External: N2YO · Heavens-Above · Gunter

§ Orbital elements

Epoch: 2026-09-19T21:13:22.548000Z

Period
94.27 min
Inclination
43.0037°
Eccentricity
0.0002001
Mean motion
15.27582268 rev/d
Perigee alt
481.7 km
Apogee alt
484.4 km
Semi-major
6,861.2 km
B*
3.7231e-5
RAAN
76.0355°
Arg perigee
262.5235°
Mean anomaly
97.5389°
Rev number
17,189

§ Raw data

STARLINK-303241 57640U 23122J   26262.88428875  .00000762  00000+0  37231-4 0  99942 57640  43.0037  76.0355 0002001 262.5235  97.5389 15.27582268171898

JSON: /api/v1/satellites/57640 · /tle

For live sub-satellite position, see the globe view (requires WebGL).

§ Visibility from observer

Set your observer location to see the next 7 days of passes ≥ 10°. The values pass through the URL so the page stays shareable.

No JS? Fill the form by hand. The geolocation button needs JavaScript.